[[{"header":{"parameterUnit":"m.s-1","parameterCategory":1,"la1":30.2991,"la2":30.254,"lo1":-89.0895,"lo2":-89.0444,"dy":0.0017,"dx":0.0017,"nx":28,"ny":28,"refTime":"2024-05-14T09:00:00:Z","depth":0,"parameterNumber":2,"parameterNumberName":"U-component_of_WINDS"},"data":[0,0,0,0,0,0,0,0,0,0,0,0,0,0,0,0,0,0,0,0,0,0,0,0,0,0,0,0,0,0,0,0,0,0,0,0,0,0,0,0,0,0,0,0,0,0,0,0,0,0,0,0,0,0,0,0,0,0,-2.7822,-2.7822,0,-2.7786,-2.7786,-2.7786,-2.7572,-2.7567,-2.7561,-2.7556,-2.7538,-2.7542,-2.7546,0,0,0,0,0,0,0,0,0,0,0,0,0,-2.7722,-2.7725,-2.7822,-2.7822,-2.7821,-2.7786,-2.7786,-2.7785,-2.7573,-2.7566,-2.756,-2.7554,-2.7536,-2.7541,-2.7546,0,0,0,0,0,0,0,0,0,0,0,0,0,-2.7735,-2.7726,-2.7823,-2.7711,-2.77,-2.7786,-2.7786,-2.7785,-2.7574,-2.7566,-2.7558,-2.7551,-2.7534,-2.7541,-2.7547,-2.7744,0,0,-2.7567,-2.757,0,0,0,0,0,0,0,0,-2.7734,-2.7739,-2.7728,-2.7718,-2.7707,-2.7675,-2.7743,-2.7772,-2.7576,-2.7623,-2.7556,-2.7547,-2.7591,-2.7592,-2.7603,-2.7743,-2.7742,-2.7568,-2.7572,-2.7574,-2.7576,0,0,0,0,0,0,0,-2.7734,-2.7739,-2.7809,-2.7728,-2.7715,-2.7667,-2.766,-2.7748,-2.7652,-2.7618,-2.7602,-2.76,-2.7584,-2.7597,-2.7601,-2.7742,-2.7567,-2.7573,-2.7577,-2.758,-2.8038,-2.8046,0,0,0,0,0,0,-2.7746,-2.774,-2.781,-2.7807,-2.7701,-2.7675,-2.7668,-2.7694,-2.765,-2.7635,-2.7607,-2.759,-2.759,-2.7594,-2.76,-2.7824,-2.7574,-2.758,-2.7584,-2.803,-2.804,-2.8049,0,0,0,0,0,0,-2.7745,-2.7754,-2.7811,-2.7769,-2.7772,-2.7685,-2.7716,-2.7697,-2.771,-2.7641,-2.7624,-2.7637,-2.7584,-2.7591,-2.7707,-2.7821,-2.7583,-2.7589,-2.802,-2.8033,-2.8045,-2.8277,0,0,0,0,0,0,-2.7743,-2.7755,-2.7825,-2.7772,-2.7775,-2.7916,-2.7723,-2.7702,-2.772,-2.7698,-2.7665,-2.7653,-2.7578,-2.7699,-2.7714,-2.7825,-2.7594,-2.801,-2.8026,-2.8041,-2.8259,-2.8296,-2.8328,0,0,0,0,0,-2.774,-2.7897,-2.783,-2.784,-2.7861,-2.7923,-2.7925,-2.7832,-2.773,-2.7802,-2.7757,-2.7654,-2.7806,-2.7713,-2.7728,-2.7843,-2.8002,-2.8021,-2.8039,-2.8244,-2.8289,-2.8327,0,0,0,0,0,0,-2.7973,-2.7888,-2.7813,-2.7956,-2.7947,-2.7886,-2.7974,-2.7883,-2.7908,-2.7887,-2.7775,-2.777,-2.7904,-2.7885,-2.7783,-2.803,-2.7886,-2.7909,-2.8036,-2.8079,-2.8112,-2.8114,-2.76,0,0,0,0,0,-2.804,-2.8092,-2.8017,-2.8151,-2.815,-2.8064,-2.8087,-2.8015,-2.8004,-2.8001,-2.7965,-2.7963,-2.8009,-2.8043,-2.8083,-2.8255,-2.8245,-2.8342,-2.8377,-2.8405,-2.8426,-2.8514,-2.8556,-2.811,-2.811,-2.811,0,0,-2.8182,-2.8141,-2.8182,-2.8197,-2.8181,-2.8242,-2.8062,-2.8135,-2.8179,-2.8014,-2.8119,-2.8094,-2.8084,-2.8229,-2.8291,-2.8218,-2.8547,-2.8429,-2.8452,-2.8457,-2.8538,-2.858,-2.8618,-2.8123,-2.812,-2.8118,0,0,-2.8468,-2.8443,-2.855,-2.8536,-2.8513,-2.8454,-2.848,-2.8432,-2.8406,-2.8509,-2.8385,-2.844,-2.8523,-2.852,-2.853,-2.8813,-2.8719,-2.883,-2.901,-2.9097,-2.9132,-2.9162,-2.9263,-2.93,-2.8851,-2.8852,-2.8852,0,-2.8648,-2.8728,-2.8619,-2.8696,-2.8707,-2.8553,-2.8663,-2.8658,-2.8652,-2.8665,-2.8581,-2.868,-2.8663,-2.8804,-2.8872,-2.8886,-2.8914,-2.8833,-2.9135,-2.9164,-2.9191,-2.9286,-2.9324,-2.8865,-2.8864,-2.8862,-2.8861,0,-2.895,-2.9008,-2.9098,-2.9087,-2.9109,-2.9204,-2.9112,-2.9148,-2.9074,-2.9025,-2.9133,-2.9106,-2.9136,-2.9164,-2.9097,-2.9296,-2.9251,-2.9153,-2.9007,-2.9249,-2.9335,-2.9371,-2.8885,-2.888,-2.8876,-2.8872,0,0,-2.9384,-2.9307,-2.9343,-2.9335,-2.9297,-2.9342,-2.9431,-2.9453,-2.9486,-2.9488,-2.956,-2.9632,-2.954,-2.9551,-2.9481,-2.9558,-2.9782,-2.945,-2.9449,-2.9512,-3.0,-3.0072,-3.0116,-2.9719,-2.9726,-2.9731,-3.0,0,-2.9657,-2.9796,-2.9699,-2.9857,-2.991,-2.9764,-2.9841,-2.9829,-2.9785,-2.9828,-2.9782,-2.9834,-2.9709,-2.9714,-2.9784,-2.974,-2.9879,-2.972,-2.9789,-2.9792,-2.9794,-3.0161,-3.0239,-3.0494,-3.0033,-3.0039,-3.0043,0,-2.9993,-3.0001,-3.0163,-3.011,-3.0129,-3.0199,-3.0211,-3.0253,-3.0237,-3.02,-3.0211,-3.012,-3.0207,-3.0063,-3.0182,-3.0076,-3.0099,-3.0082,-3.009,-3.0092,-2.9932,-3.0173,-3.0573,-3.0611,-3.0096,-3.0091,-3.0088,0,-3.0291,-3.0343,-3.0445,-3.0444,-3.0387,-3.0439,-3.0419,-3.0394,-3.0413,-3.0427,-3.0438,-3.0464,-3.0479,-3.0503,-3.0423,-3.0325,-3.0553,-3.0402,-3.0527,-3.0529,-3.0581,-3.0579,-3.099,-3.0599,-3.0598,-3.0597,-3.0597,0,-3.0605,-3.0709,-3.0577,-3.0641,-3.0754,-3.0643,-3.076,-3.0726,-3.0704,-3.0761,-3.064,-3.0697,-3.0588,-3.0636,-3.0575,-3.0682,-3.0691,-3.0666,-3.0648,-3.0676,-3.0679,-3.0689,-3.0669,-3.0607,-3.0605,-3.0603,-3.0601,0,-3.0956,-3.0872,-3.0973,-3.0908,-3.0895,-3.0981,-3.0928,-3.0986,-3.0933,-3.1007,-3.1018,-3.0938,-3.0987,-3.0909,-3.0952,-3.0911,-3.1059,-3.1015,-3.1063,-3.1049,-3.1178,-3.1166,-3.1609,-3.1661,-3.1238,-3.1242,-3.1246,0,-3.1161,-3.1236,-3.1178,-3.1204,-3.1188,-3.1233,-3.125,-3.1146,-3.117,-3.1155,-3.1216,-3.1253,-3.1277,-3.1363,-3.1312,-3.1343,-3.1299,-3.1452,-3.1303,-3.1328,-3.13,-3.1295,-3.1302,-3.1482,-3.1488,-3.1492,-3.1495,0,-3.1533,-3.1486,-3.1512,-3.1524,-3.1546,-3.1552,-3.155,-3.158,-3.147,-3.1504,-3.1548,-3.1567,-3.1606,-3.1646,-3.1663,-3.1647,-3.1555,-3.1542,-3.1572,-3.1601,-3.1624,-3.1611,-3.1144,-3.1532,-3.1529,-3.1526,-3.1524,-3.1522,-3.1815,-3.1875,-3.1841,-3.1875,-3.186,-3.1861,-3.191,-3.1862,-3.1895,-3.1914,-3.1853,-3.1913,-3.1895,-3.1908,-3.1902,-3.195,-3.1883,-3.1928,-3.1939,-3.1951,-3.197,-3.1617,-3.1954,-3.1952,-3.1951,-3.195,-3.195,0,-3.2179,-3.215,-3.2181,-3.2178,-3.2205,-3.2108,-3.2101,-3.2131,-3.2183,-3.2171,-3.2195,-3.2248,-3.2285,-3.2235,-3.2264,-3.2312,-3.227,-3.2323,-3.2319,-3.2316,-3.2029,-3.1999,-3.2356,-3.2356,-3.2356,-3.2356,-3.2356,-3.2356,-3.2371,-3.2465,-3.2416,-3.2503,-3.2474,-3.2526,-3.253,-3.253,-3.252,-3.2581,-3.2609,-3.2574,-3.2548,-3.2573,-3.2604,-3.2589,-3.2605,-3.2673,-3.2644,-3.2377,-3.2337,-3.2299,-3.227,-3.2678,-3.2679,-3.2926,-3.2928,-3.293]},{"header":{"parameterUnit":"m.s-1","parameterCategory":1,"la1":30.2991,"la2":30.254,"lo1":-89.0895,"lo2":-89.0444,"dy":0.0017,"dx":0.0017,"nx":28,"ny":28,"refTime":"2024-05-14T09:00:00:Z","depth":0,"parameterNumber":3,"parameterNumberName":"V-component_of_WINDS"},"data":[0,0,0,0,0,0,0,0,0,0,0,0,0,0,0,0,0,0,0,0,0,0,0,0,0,0,0,0,0,0,0,0,0,0,0,0,0,0,0,0,0,0,0,0,0,0,0,0,0,0,0,0,0,0,0,0,0,0,-0.2602,-0.26,0,-0.245,-0.2448,-0.2446,-0.2331,-0.233,-0.2329,-0.2328,-0.218,-0.2177,-0.2174,0,0,0,0,0,0,0,0,0,0,0,0,0,-0.28,-0.2797,-0.2602,-0.26,-0.2598,-0.245,-0.2448,-0.2446,-0.2331,-0.233,-0.2328,-0.2327,-0.2181,-0.2177,-0.2174,0,0,0,0,0,0,0,0,0,0,0,0,0,-0.2688,-0.2796,-0.2602,-0.2523,-0.2514,-0.245,-0.2448,-0.2445,-0.2331,-0.233,-0.2328,-0.2326,-0.2182,-0.2178,-0.2173,-0.2179,0,0,-0.216,-0.2158,0,0,0,0,0,0,0,0,-0.2694,-0.268,-0.2536,-0.2528,-0.2518,-0.2407,-0.2463,-0.2356,-0.2332,-0.2401,-0.2328,-0.2326,-0.2257,-0.2247,-0.2222,-0.2172,-0.2166,-0.216,-0.2157,-0.2155,-0.2154,0,0,0,0,0,0,0,-0.2702,-0.2686,-0.2542,-0.2535,-0.2523,-0.2497,-0.2479,-0.2442,-0.2341,-0.2395,-0.2386,-0.2369,-0.2252,-0.2227,-0.2218,-0.2163,-0.216,-0.2156,-0.2153,-0.2151,-0.2108,-0.211,0,0,0,0,0,0,-0.2721,-0.2694,-0.2547,-0.2537,-0.2604,-0.2494,-0.2475,-0.2445,-0.234,-0.2323,-0.2371,-0.2364,-0.2235,-0.2223,-0.2212,-0.221,-0.2155,-0.2151,-0.2148,-0.2107,-0.2109,-0.211,0,0,0,0,0,0,-0.2726,-0.2709,-0.2553,-0.2613,-0.2591,-0.2493,-0.246,-0.2443,-0.2417,-0.2322,-0.2304,-0.2363,-0.2233,-0.2218,-0.2187,-0.2204,-0.2149,-0.2145,-0.2105,-0.2107,-0.2109,-0.2208,0,0,0,0,0,0,-0.2732,-0.2711,-0.2711,-0.2614,-0.2588,-0.2529,-0.2461,-0.2441,-0.2408,-0.2399,-0.231,-0.2294,-0.2231,-0.2194,-0.2183,-0.2197,-0.2142,-0.2103,-0.2106,-0.2109,-0.2203,-0.2214,-0.2223,0,0,0,0,0,-0.2739,-0.2747,-0.2712,-0.2695,-0.2585,-0.253,-0.2516,-0.2441,-0.241,-0.241,-0.2349,-0.2296,-0.2203,-0.2192,-0.2178,-0.2191,-0.2102,-0.2105,-0.2108,-0.2199,-0.2212,-0.2222,0,0,0,0,0,0,-0.2853,-0.2733,-0.2693,-0.2669,-0.261,-0.2511,-0.2508,-0.2457,-0.2408,-0.2401,-0.2312,-0.2293,-0.2272,-0.2228,-0.2217,-0.219,-0.2146,-0.2147,-0.2219,-0.2231,-0.224,-0.2252,-0.2138,0,0,0,0,0,-0.2875,-0.2838,-0.2736,-0.2725,-0.2697,-0.2608,-0.2581,-0.2528,-0.2464,-0.244,-0.2377,-0.232,-0.2277,-0.2251,-0.2207,-0.2196,-0.2175,-0.2198,-0.2207,-0.2216,-0.2218,-0.2208,-0.2217,-0.2121,-0.2121,-0.2121,0,0,-0.2921,-0.285,-0.2833,-0.2746,-0.2694,-0.2659,-0.2588,-0.2555,-0.2528,-0.2436,-0.2401,-0.2353,-0.2283,-0.2261,-0.2249,-0.2224,-0.2239,-0.222,-0.2228,-0.2225,-0.2212,-0.2222,-0.223,-0.2123,-0.2123,-0.2123,0,0,-0.2986,-0.2929,-0.2912,-0.2861,-0.2782,-0.2722,-0.2719,-0.2626,-0.2589,-0.2552,-0.2482,-0.245,-0.2379,-0.2332,-0.2299,-0.2343,-0.2293,-0.2331,-0.2383,-0.2374,-0.2382,-0.2388,-0.2404,-0.2411,-0.2334,-0.2334,-0.2334,0,-0.3054,-0.2996,-0.2912,-0.2881,-0.2845,-0.2756,-0.2739,-0.2694,-0.2607,-0.2585,-0.2558,-0.2465,-0.2412,-0.2377,-0.2388,-0.2364,-0.2357,-0.2342,-0.2387,-0.2392,-0.2397,-0.2411,-0.2417,-0.2339,-0.2338,-0.2338,-0.2337,0,-0.3083,-0.3044,-0.3041,-0.2954,-0.2917,-0.2895,-0.2808,-0.2782,-0.2731,-0.2675,-0.2638,-0.2571,-0.2511,-0.2498,-0.245,-0.2457,-0.2444,-0.2403,-0.2357,-0.2413,-0.2425,-0.2429,-0.2346,-0.2345,-0.2343,-0.2342,0,0,-0.3218,-0.3082,-0.3083,-0.3042,-0.2947,-0.2917,-0.289,-0.2827,-0.2806,-0.2749,-0.2724,-0.2665,-0.2625,-0.2588,-0.2533,-0.2525,-0.2564,-0.2485,-0.2482,-0.2503,-0.2567,-0.2599,-0.2606,-0.253,-0.253,-0.2531,-0.2573,0,-0.3269,-0.3213,-0.3135,-0.3106,-0.3069,-0.2982,-0.2959,-0.2899,-0.2845,-0.2808,-0.2749,-0.2708,-0.2659,-0.2635,-0.2624,-0.2562,-0.2576,-0.2558,-0.2508,-0.2507,-0.2529,-0.2612,-0.2646,-0.2689,-0.2577,-0.2578,-0.2578,0,-0.3321,-0.3264,-0.3231,-0.3137,-0.3118,-0.3099,-0.3034,-0.2999,-0.293,-0.2891,-0.2847,-0.2787,-0.2755,-0.2713,-0.2668,-0.2657,-0.2632,-0.2599,-0.2599,-0.2592,-0.2547,-0.2609,-0.2701,-0.2708,-0.2585,-0.2584,-0.2584,0,-0.3423,-0.3338,-0.3307,-0.3274,-0.3164,-0.3152,-0.3106,-0.3035,-0.3002,-0.2947,-0.2924,-0.2868,-0.2837,-0.2795,-0.2721,-0.2697,-0.2685,-0.2636,-0.2653,-0.2655,-0.2656,-0.2657,-0.2746,-0.2638,-0.2638,-0.2638,-0.2638,0,-0.3489,-0.3472,-0.3351,-0.3332,-0.331,-0.3221,-0.3203,-0.3149,-0.3086,-0.3056,-0.2978,-0.2952,-0.2855,-0.2819,-0.2761,-0.2733,-0.272,-0.2688,-0.2673,-0.2695,-0.27,-0.2679,-0.2674,-0.264,-0.2639,-0.2639,-0.2639,0,-0.36,-0.3518,-0.3477,-0.3375,-0.3349,-0.3338,-0.3251,-0.323,-0.317,-0.3133,-0.3119,-0.3026,-0.2978,-0.29,-0.283,-0.2791,-0.2774,-0.2748,-0.2797,-0.2788,-0.2809,-0.2808,-0.2888,-0.2894,-0.2783,-0.2784,-0.2785,0,-0.3647,-0.3631,-0.3526,-0.3499,-0.3455,-0.3413,-0.3377,-0.3289,-0.3256,-0.3174,-0.3164,-0.3109,-0.306,-0.2988,-0.2916,-0.2861,-0.2834,-0.2866,-0.2826,-0.2848,-0.2835,-0.2837,-0.2835,-0.2876,-0.2878,-0.2879,-0.288,0,-0.374,-0.37,-0.3651,-0.3587,-0.3547,-0.3494,-0.3437,-0.3419,-0.3319,-0.3286,-0.3234,-0.3196,-0.3122,-0.307,-0.3004,-0.2959,-0.2904,-0.2893,-0.2894,-0.2917,-0.2945,-0.293,-0.2823,-0.2892,-0.2891,-0.289,-0.2889,-0.2889,-0.3821,-0.3802,-0.3725,-0.3673,-0.3619,-0.3567,-0.3542,-0.3477,-0.3432,-0.3363,-0.3314,-0.3266,-0.3195,-0.3102,-0.3059,-0.3021,-0.2996,-0.2998,-0.2998,-0.3,-0.3008,-0.295,-0.3009,-0.3008,-0.3008,-0.3007,-0.3007,0,-0.391,-0.3855,-0.3808,-0.3728,-0.3688,-0.3635,-0.3569,-0.3539,-0.3496,-0.3434,-0.3386,-0.3327,-0.3274,-0.3196,-0.3138,-0.3122,-0.3095,-0.311,-0.3111,-0.3101,-0.3034,-0.3039,-0.3133,-0.3133,-0.3133,-0.3133,-0.3133,-0.3133,-0.3951,-0.3917,-0.3867,-0.3805,-0.3751,-0.37,-0.3667,-0.3619,-0.3568,-0.3504,-0.3459,-0.3407,-0.3339,-0.3274,-0.3224,-0.3202,-0.3185,-0.3208,-0.3179,-0.3118,-0.3106,-0.3095,-0.3099,-0.3205,-0.3205,-0.3249,-0.325,-0.325]}]]